Location: Wilsall
(45.9940°N, 110.6590°W)
Time: 18:12:32
(UTC-06:00)

Daily predictions for brighter satellites

Satellite Brightness Start Highest point End
(mag) Time Altitude Azimuth Time Altitude Azimuth Time Altitude Azimuth
Cosmos 1833 Rocket 4.4 20:00:26 10° N 20:03:53 16° NE 20:07:19 10° ENE
Cosmos 2278 Rocket 3.4 20:01:10 10° SE 20:05:01 19° E 20:08:53 10° ENE
Cosmos 1378 3.7 20:01:43 10° N 20:05:15 36° ENE 20:08:44 10° SE
H-2A R/B 3.2 20:07:07 10° SE 20:10:49 43° ENE 20:14:34 10° N
Meteor 1-24 Rocket 3.9 20:07:16 10° N 20:12:30 47° ENE 20:17:53 10° SSE
Cosmos 1000 Rocket 4.5 20:06:45 10° N 20:12:56 70° E 20:19:05 10° SSE
Cosmos 1707 2.7 20:09:09 10° N 20:13:05 75° E 20:16:58 10° SSE
Meteor 2-5 Rocket 3.8 20:09:21 10° N 20:15:04 82° E 20:20:52 10° SSE
Lacrosse 5 rocket 3.4 20:12:37 10° NW 20:15:27 18° N 20:18:11 10° NE
Cosmos 2150 Rocket 4.3 20:11:13 10° S 20:16:00 41° ESE 20:20:50 10° NE
Spot 2 Rocket 3.6 20:13:23 10° SSE 20:18:21 57° ENE 20:23:22 10° N
RESURS DK-1 3.1 20:14:34 10° NNW 20:18:26 36° NE 20:22:16 10° ESE
Cosmos 2228 3.2 20:14:51 10° SSW 20:19:05 76° W 20:23:21 10° N
Cosmos 2123 Rocket 4.3 20:13:27 10° N 20:19:33 46° ENE 20:25:34 10° SSE
FENGYUN 3A 3.7 20:15:08 10° SSE 20:20:33 84° ENE 20:25:59 10° NNW
Cosmos 2263 Rocket 3.9 20:17:44 10° WSW 20:22:57 37° NW 20:28:10 10° NNE
Cosmos 1766 3.8 20:23:35 10° SSE 20:27:06 34° E 20:30:39 10° NNE
Cosmos 2084 Rocket 3.3 20:24:21 10° SW 20:28:25 85° NW 20:32:19 10° NE
USA 215 3.9 20:23:41 10° ENE 20:29:29 33° SE 20:35:14 10° S
Cosmos 2082 Rocket 3.4 20:26:49 10° N 20:31:30 25° NE 20:35:17 14° E
Cosmos 1898 Rocket 3.5 20:26:23 10° SSW 20:31:40 73° ESE 20:36:57 10° NNE
Cosmos 990 Rocket 4.2 20:30:47 10° S 20:35:47 47° ESE 20:40:49 10° NNE
COSMOS 2406 3.8 20:30:23 10° NNW 20:36:05 63° WSW 20:41:42 10° S
Envisat 3.8 20:31:49 10° SE 20:36:18 32° ENE 20:40:47 10° N
Cosmos 1544 4.2 20:38:42 10° SE 20:41:40 24° E 20:44:40 10° NE
Meteor 1-4 Rocket 4.1 20:42:30 16° ENE 20:42:30 16° ENE 20:44:16 10° NE
Helios 1B rocket 3.0 20:41:33 10° NNE 20:45:22 35° E 20:49:10 10° SSE
Helios 1A 3.1 20:41:35 10° SSE 20:45:37 53° ENE 20:49:43 10° N
Resurs 1-3 3.6 20:42:30 10° SSE 20:46:53 87° W 20:51:18 10° NNW
Geosat 3.9 20:43:54 10° NNE 20:48:55 65° ESE 20:53:54 10° SSW
Cosmos 1818 4.1 20:48:07 10° NNW 20:53:20 44° NE 20:56:37 21° ESE
SL-27 R/B 2.4 20:51:13 10° NNW 20:54:46 88° ENE 20:57:54 13° SSE
COSMOS 2487 4.0 20:52:19 10° N 20:55:00 19° ENE 20:55:21 19° ENE
Cosmos 1844 3.7 20:49:24 10° SSW 20:55:10 80° ESE 21:01:00 10° NNE
Tiangong 1 2.1 20:53:39 10° W 20:56:19 32° SSW 20:57:19 25° SSE
Meteor 1-29 3.6 20:53:21 10° NNE 20:56:33 34° E 20:58:58 15° SSE
BREEZE-M DEB (TANK) 4.5 20:54:22 10° S 20:57:41 23° ESE 21:05:10 10° ENE
CZ-2D R/B 3.4 20:54:22 10° S 20:58:13 74° WSW 21:02:07 10° NNW
Lacrosse 4 Rocket 1.4 20:54:36 10° SSW 20:58:40 81° WNW 21:02:45 10° NNE
USA 186 1.0 21:02:53 31° S 21:03:48 72° WSW 21:06:04 10° NNW
USA 267 3.8 20:59:17 18° E 21:03:56 48° NNE 21:10:10 10° NW
Cosmos 1805 3.4 21:01:32 10° SSE 21:05:17 48° E 21:09:05 10° NNE
ERS-1 Rocket 3.7 21:03:34 24° ESE 21:05:36 34° ENE 21:10:07 10° N
Cosmos 1937 Rocket 3.6 21:00:52 10° SSW 21:06:06 80° WNW 21:11:27 10° NNE
Cosmos 1437 Rocket 3.8 21:02:42 10° SSW 21:06:35 50° WNW 21:10:35 10° N
CZ-4B DEB 2.6 21:05:48 34° SE 21:06:57 63° ENE 21:10:03 10° N
Cosmos 1340 Rocket 4.2 21:04:55 10° NNE 21:07:59 22° ENE 21:07:59 22° ENE
Abrixas 2.4 21:05:51 10° WNW 21:08:43 68° NNE 21:09:11 53° ENE
BREEZE-M DEB 4.4 21:04:32 10° WSW 21:08:46 77° NNW 21:10:00 33° ENE
Cosmos 1674 3.4 21:05:33 10° N 21:08:58 32° ENE 21:09:12 32° E
Okean 3 Rocket 3.5 21:06:32 10° N 21:10:57 85° E 21:15:03 12° S
Cosmos 1269 Rocket 4.4 21:06:38 10° NNW 21:11:44 46° ENE 21:14:00 29° ESE
Cosmos 1408 Rocket 4.0 21:07:44 10° N 21:11:59 41° ENE 21:13:19 32° ESE
Cosmos 2098 Rocket 4.4 21:05:38 10° SSE 21:12:28 58° E 21:19:55 10° NNE
ALOS 4.4 21:13:38 10° SSW 21:17:34 27° W 21:21:32 10° NW
Cosmos 1934 Rocket 4.3 21:13:15 10° SSW 21:19:22 66° W 21:25:26 10° N
Cosmos 468 4.4 21:16:53 10° NNW 21:22:08 78° ENE 21:25:00 27° SSE
Cosmos 1758 3.2 21:19:18 15° S 21:22:34 66° E 21:26:33 10° NNE
Lacrosse 5 1.9 21:19:39 10° SSW 21:24:36 57° SE 21:27:17 26° ENE
CZ-3B DEB 2.5 21:14:49 10° SW 21:25:11 88° SE 21:28:42 20° NE
Cosmos 1939 Rocket 2.8 21:26:39 37° SSE 21:28:14 78° ENE 21:32:25 10° N
SPOT 5 3.9 21:28:33 31° E 21:29:15 32° ENE 21:33:56 10° N
Resurs 01 Rocket 3.8 21:29:47 10° SSW 21:33:27 25° W 21:37:09 10° NW
Cosmos 1953 2.2 21:30:51 20° S 21:33:37 82° E 21:37:43 10° N
GP-B 3.0 21:31:09 21° S 21:34:04 89° ENE 21:38:32 10° N
Cosmos 2344 3.7 21:26:48 10° SW 21:34:29 84° NW 21:43:28 10° NE
Cosmos 1844 Rocket 4.2 21:36:35 10° WSW 21:41:49 38° NW 21:47:03 10° NNE
Cosmos 2016 Rocket 4.3 21:42:53 40° E 21:43:19 40° E 21:49:02 10° NNE
YAOGAN 6 3.0 21:43:57 54° NNE 21:43:57 54° NNE 21:47:05 10° N
Cosmos 2278 Rocket 2.4 21:42:49 10° SW 21:48:28 71° WNW 21:54:11 10° NNE
Cosmos 1833 Rocket 2.6 21:43:12 10° NNW 21:48:50 75° ENE 21:50:12 52° SE
NOAA 11 4.4 21:48:10 48° E 21:48:53 51° ENE 21:54:12 10° N
Cosmos 1766 Rocket 3.7 21:48:43 10° NNW 21:53:12 74° W 21:54:17 50° SSW
Cosmos 2100 Rocket 3.9 21:49:25 22° S 21:53:35 72° E 21:59:57 10° NNE
Lacrosse 5 rocket 2.3 21:51:54 10° NW 21:55:11 36° NNE 21:55:11 36° NNE
RESURS DK-1 4.5 21:53:00 10° NW 21:56:18 23° WSW 21:58:30 15° SSW
Cosmos 372 Rocket 4.1 21:57:11 54° ENE 21:57:11 54° ENE 22:01:28 10° NNE
H-2A R/B 3.2 21:57:46 30° NE 21:57:46 30° NE 22:01:50 10° N
Cosmos 1076 Rocket 4.5 21:55:05 10° NNW 21:59:09 44° W 22:00:54 28° SW
Cosmos 2297 3.6 21:53:57 10° SSW 21:59:37 71° ESE 22:05:22 10° NNE
USA 245 4.5 22:04:29 48° ENE 22:04:29 48° ENE 22:09:55 10° N
Terra 3.8 22:08:46 18° NE 22:08:46 18° NE 22:10:39 10° NNE
Meteor 2-17 Rocket 4.4 22:08:15 60° E 22:08:24 60° E 22:14:27 10° NNE
MetOp-B 4.0 22:09:15 74° ESE 22:09:34 78° ENE 22:14:57 10° NNW
Cosmos 1802 Rocket 3.8 22:08:23 54° SSE 22:09:49 75° E 22:16:00 10° NNE
Cosmos 158 Rocket 4.0 22:05:19 10° NNW 22:10:23 71° WSW 22:11:02 63° SSW
USA 215 3.2 22:06:21 10° NE 22:12:55 82° NW 22:19:27 10° WSW
Cosmos 1271 Rocket 4.4 22:16:40 28° N 22:16:40 28° N 22:18:40 10° N
Timation 1 Rocket 4.4 22:09:00 10° SSW 22:15:01 79° WNW 22:21:05 10° NNE
Envisat 4.4 22:11:56 17° SSW 22:15:14 35° W 22:19:55 10° NNW
Cosmos 2082 Rocket 2.5 22:10:26 10° NNW 22:16:04 63° WSW 22:17:10 52° SSW
Cosmos 2061 Rocket 3.9 22:13:20 36° S 22:16:10 90° E 22:22:39 10° N
Meteor 1-4 Rocket 4.3 22:16:42 29° W 22:16:52 29° WNW 22:19:58 10° N
Timation 2 Rocket 4.0 22:12:05 10° NNW 22:18:28 75° WSW 22:19:38 59° S
Cosmos 1125 Rocket 3.9 22:16:58 10° SSW 22:22:06 62° WNW 22:27:18 10° NNE
Cosmos-2242 3.8 22:23:52 49° NW 22:23:52 49° NW 22:27:29 10° N
Cosmos 1743 Rocket 4.3 22:20:57 10° NNW 22:24:24 52° NNW 22:24:24 52° NNW
H-2A R/B 4.1 22:30:47 19° N 22:30:47 19° N 22:32:08 10° N
SPOT 1/Viking Rocket 4.0 22:41:35 55° N 22:41:35 55° N 22:45:39 10° NNW
ERS-1 Rocket 4.3 22:43:34 32° WSW 22:44:21 34° W 22:48:56 10° NNW
USA 267 3.2 22:46:37 74° SSW 22:46:45 74° SW 22:53:19 10° NW
Cosmos 2251 Rocket 4.1 22:41:40 10° NNW 22:45:45 54° NNW 22:45:45 54° NNW
ARGOS 3.5 22:48:37 60° WNW 22:48:37 60° WNW 22:53:17 10° NNW
SPOT 5 4.2 23:07:47 39° W 23:07:47 39° W 23:12:13 10° NNW
Lacrosse 5 3.3 23:03:01 10° W 23:06:35 34° WNW 23:06:35 34° WNW
H-2A R/B 3.8 23:38:24 31° NW 23:38:24 31° NW 23:41:32 10° NNW
CZ-3B DEB 4.1 23:33:10 10° WNW 23:36:35 22° NW 23:36:35 22° NW
Terra 4.2 23:47:39 20° NNW 23:47:39 20° NNW 23:49:10 10° NNW
